Theta_e
314 314 315 317 316 316 314 314 313 313 315 314 313 315 319 318 311 312 321 323 320 323 327 329 330 331 330 329 330 332 333 334 335 334 333 333 334 336 334 332 331 330 332 334 335 335 336 336 336 334 334 333 333 331 331 331 329 327 328 327 327 325 325 324 324 324 326 325 327 328 328 327 327 326 326 326 327 327 328 327 326 326 325 321 321 321 321
314 314 315 317 316 316 316 316 316 316 315 316 316 316 318 318 317 319 323 324 324 327 328 331 331 332 331 331 333 333 333 332 333 333 332 332 333 333 331 331 332 333 334 335 335 335 333 333 334 334 332 332 330 330 330 330 328 327 327 326 326 325 323 323 325 326 326 325 326 326 325 325 325 325 324 324 325 325 324 324 324 323 322 322 321 319 319
313 314 316 317 317 316 315 316 317 317 317 318 318 317 318 319 319 318 321 322 322 329 333 332 332 332 332 332 330 331 332 332 332 332 331 332 334 331 332 332 334 335 335 336 336 336 335 335 334 332 332 331 330 330 329 327 326 326 327 325 324 322 323 324 325 325 324 323 324 323 324 324 324 322 322 323 323 323 322 322 322 321 321 319 319 318 317
311 315 315 316 317 316 316 316 317 316 315 314 317 318 319 317 315 317 315 316 322 327 332 332 331 330 330 329 330 330 330 331 332 331 331 332 333 332 332 334 334 334 335 335 335 334 333 333 331 331 330 330 329 326 326 324 325 326 325 324 323 323 324 324 323 324 324 323 323 322 321 322 320 321 321 321 321 321 320 320 320 320 319 318 318 318 317
311 315 315 314 314 313 310 314 318 318 318 319 318 320 322 322 320 315 313 321 329 330 332 329 329 330 329 330 330 330 329 332 332 331 330 333 334 334 333 332 333 333 333 334 334 333 332 331 330 329 330 328 325 325 324 324 326 324 323 322 324 322 324 324 324 326 325 323 322 321 321 320 320 318 318 318 318 318 319 319 319 318 318 317 317 317 317
311 313 314 314 310 303 305 320 324 324 319 319 317 317 319 322 324 323 325 327 332 331 331 330 328 328 329 331 333 334 333 333 331 331 333 334 334 333 332 332 331 332 332 332 332 332 331 330 330 329 329 326 324 324 325 325 323 324 323 323 323 322 323 323 324 324 324 323 322 321 320 320 318 317 317 316 317 317 318 319 318 317 317 316 316 316 315
310 314 314 307 302 302 318 327 325 325 323 322 322 321 322 323 324 324 325 328 331 332 333 331 332 333 333 334 333 334 336 336 334 334 335 334 333 332 331 330 329 331 331 330 331 330 328 328 329 327 325 325 325 324 324 322 323 323 323 322 322 323 322 323 323 325 324 322 321 321 320 319 319 317 316 316 316 316 316 315 316 316 315 315 315 315 315
315 311 308 300 302 315 323 324 325 326 326 324 321 319 323 326 326 326 327 331 333 334 332 333 334 333 332 334 336 335 335 337 335 333 332 333 333 332 331 330 331 331 330 329 329 328 329 327 326 326 324 325 324 323 324 321 322 322 322 321 320 321 320 321 321 323 323 322 321 320 319 319 317 316 317 317 316 316 315 315 315 316 315 315 315 314 315
307 307 307 307 318 319 317 318 321 324 321 320 319 314 321 328 327 328 329 332 333 333 332 333 333 333 332 330 330 334 336 336 335 333 331 331 330 330 331 331 330 330 330 330 330 329 327 326 324 323 325 324 324 322 322 321 321 320 320 320 320 321 320 320 321 322 322 323 320 320 318 318 318 317 317 316 317 318 316 314 314 313 314 314 315 314 315
319 308 306 308 307 304 316 323 325 327 326 326 325 322 320 328 328 330 330 331 331 331 331 331 332 332 327 324 326 332 335 336 332 332 331 330 330 330 331 330 329 329 328 327 328 326 326 325 325 325 325 324 323 322 321 321 321 321 320 319 320 320 320 320 322 322 323 322 321 320 320 318 317 318 318 318 318 318 316 314 314 315 315 314 315 315 315
313 310 306 305 304 315 322 321 323 325 327 325 325 318 315 328 330 332 331 329 330 330 329 330 330 326 320 320 325 330 333 333 333 332 331 330 329 329 328 327 325 325 324 324 325 326 325 323 324 325 323 323 321 320 320 321 320 320 319 320 320 319 320 322 322 322 323 322 321 321 320 318 319 318 319 319 319 319 318 317 315 315 315 314 314 315 316
311 309 306 305 317 316 319 321 323 325 327 326 322 307 309 321 330 331 331 329 329 329 330 330 328 323 318 320 325 331 334 333 332 331 329 328 329 328 327 326 324 323 324 324 323 322 321 321 323 323 323 321 320 320 321 321 319 319 320 320 321 321 322 323 323 324 324 323 322 321 320 320 321 320 321 320 319 319 319 317 315 315 315 315 314 314 315
312 310 309 313 316 320 322 321 324 326 327 323 312 306 317 329 330 332 330 330 330 331 329 328 325 325 327 329 330 332 332 331 329 329 330 329 328 325 323 321 324 323 322 320 318 318 320 322 323 324 323 321 321 321 321 320 319 320 321 322 321 322 323 322 321 320 321 321 321 322 322 320 321 321 321 320 320 319 317 317 317 316 315 315 314 314 315
309 310 307 310 319 320 321 325 324 326 321 311 310 323 333 331 330 332 331 330 332 332 330 327 327 328 330 331 331 330 330 329 329 328 327 327 325 323 323 324 322 319 317 317 318 318 320 321 321 323 322 321 321 321 321 319 320 323 322 322 322 322 321 321 319 319 319 320 319 319 321 321 319 318 320 321 319 321 318 317 316 316 315 315 314 313 314
313 313 309 309 301 319 321 322 323 325 320 320 326 331 332 331 331 331 331 331 330 330 327 328 329 329 329 330 330 330 330 329 328 327 325 323 321 320 320 320 320 318 317 317 317 317 318 319 321 322 323 321 321 321 320 320 322 323 322 321 321 320 320 318 318 318 319 319 319 318 318 319 319 317 318 318 319 320 318 317 317 316 314 314 314 312 312
311 309 306 306 317 321 322 324 321 325 328 332 333 331 328 331 330 330 331 331 330 329 328 327 328 329 328 328 329 329 329 328 327 326 325 323 321 321 320 320 318 317 316 317 318 318 319 322 322 322 322 321 321 321 320 323 323 323 322 320 321 319 319 319 318 318 319 320 319 319 319 319 318 317 316 317 318 318 318 317 315 315 313 313 313 313 312
320 316 316 319 322 322 324 326 326 329 331 332 333 331 329 328 329 332 330 330 330 330 329 329 329 327 328 327 327 326 325 325 324 323 322 321 320 320 319 317 318 318 317 318 320 320 321 321 323 324 323 321 321 320 321 322 322 321 320 319 320 318 317 318 318 317 319 320 320 319 319 318 318 316 317 317 315 318 318 316 315 315 313 313 312 312 312
321 322 322 322 323 323 324 326 328 328 329 332 332 330 330 331 332 331 329 327 327 328 329 327 327 326 326 326 325 325 324 323 323 323 321 321 321 320 319 319 319 318 318 320 320 320 320 321 322 323 323 322 321 321 323 322 322 320 319 319 319 318 318 318 317 318 317 317 319 319 318 318 318 316 317 316 316 316 315 316 315 314 313 312 311 313 312
319 308 323 321 321 324 325 325 328 330 331 331 332 331 330 329 329 328 328 327 327 327 328 327 326 325 324 323 323 324 323 322 321 320 320 321 320 319 319 319 320 319 318 317 319 320 320 321 322 322 323 323 323 323 323 319 319 320 321 319 319 319 318 316 316 318 317 317 316 317 317 316 317 317 316 316 316 315 315 315 315 314 314 313 313 312 312
319 316 319 320 322 324 326 327 325 325 326 327 328 328 327 327 326 325 325 326 326 327 325 326 324 323 322 321 321 320 320 320 320 320 320 320 320 321 321 321 320 320 320 318 319 319 320 321 322 322 322 322 323 323 321 320 318 320 319 318 315 316 315 316 315 316 315 314 315 315 316 317 315 315 317 316 315 316 316 315 314 314 315 314 313 313 312
317 319 320 321 322 322 323 324 325 324 323 323 323 323 323 323 324 324 325 325 325 325 325 325 323 321 320 320 321 319 319 319 320 320 320 321 321 321 321 321 322 321 320 319 320 320 321 322 322 322 322 323 324 323 322 322 321 319 318 317 317 315 316 315 316 317 315 315 315 315 315 317 317 318 316 316 317 317 319 318 317 316 316 315 315 315 314
314 315 316 320 315 313 318 321 323 322 323 323 322 322 321 322 323 324 323 324 325 324 323 322 321 320 320 320 321 318 319 319 320 321 321 321 320 320 320 321 321 322 321 321 320 320 321 322 322 321 321 322 323 322 323 322 320 319 318 317 317 316 316 315 315 315 315 314 315 316 316 315 317 317 318 316 315 316 317 321 313 308 309 317 317 316 316
316 321 321 327 324 320 320 320 321 322 323 323 321 321 322 322 323 323 322 321 322 322 322 322 321 320 320 320 320 319 319 320 321 322 322 320 320 320 320 320 320 321 321 321 321 321 321 322 322 322 322 321 323 322 321 321 320 320 319 317 316 315 316 315 315 315 315 314 316 317 317 315 316 316 315 322 302 304 313 320 314 302 296 301 305 311 318
323 324 323 324 322 317 318 322 324 323 324 323 321 322 323 323 322 322 322 321 320 319 320 320 320 321 321 320 320 319 320 321 322 321 321 322 321 321 319 319 320 320 319 321 321 320 321 322 322 322 321 321 322 322 321 322 321 321 319 317 316 316 316 317 317 318 316 317 317 316 315 316 317 315 314 314 318 305 299 306 306 299 297 296 297 301 305
321 325 326 325 322 320 321 323 324 324 324 322 321 321 322 323 322 323 321 321 321 320 319 319 320 321 321 321 321 321 320 320 321 321 322 322 320 319 318 317 319 320 321 321 322 321 321 322 322 321 321 321 320 317 321 321 321 320 319 319 318 317 317 317 317 317 316 316 317 316 316 316 316 316 314 313 312 314 324 300 297 298 295 295 295 297 297
327 326 325 324 323 322 322 321 321 323 323 324 323 324 325 325 323 323 322 323 321 321 321 320 320 321 322 321 321 321 320 320 321 321 320 320 319 318 317 317 318 320 321 321 321 322 321 322 323 322 322 321 321 320 319 321 320 320 320 318 318 316 316 317 317 316 316 316 316 316 316 316 316 315 315 315 313 314 313 315 320 310 296 293 294 295 295
326 325 323 320 319 320 322 319 318 321 321 322 322 323 324 325 324 323 323 323 322 322 321 322 322 323 324 323 322 321 321 320 320 321 320 319 318 318 317 318 318 319 320 321 322 322 322 324 323 322 323 321 322 321 320 320 321 320 320 319 319 317 316 317 317 316 316 316 316 316 316 316 315 315 315 315 315 314 314 314 314 314 317 321 304 294 306
324 324 324 319 318 320 321 322 323 323 323 321 322 322 322 323 322 321 320 321 322 323 322 323 322 322 322 322 322 321 320 320 319 319 318 316 317 318 319 320 319 320 321 322 322 324 323 323 322 321 322 323 324 323 321 321 321 321 320 320 318 318 318 317 317 317 316 317 317 316 316 316 316 315 315 315 314 314 313 314 315 315 316 318 321 309 299
325 326 326 324 324 324 324 324 324 323 322 323 322 321 320 319 319 319 319 319 321 322 322 323 324 324 322 322 321 320 319 318 318 318 319 320 319 319 320 320 321 321 322 323 322 323 324 323 323 321 322 324 324 324 323 322 322 320 319 319 319 318 318 318 318 317 318 317 318 317 317 316 316 316 316 315 315 314 315 315 316 317 317 320 320 321 313
326 326 325 325 324 322 321 320 320 321 320 321 319 319 320 319 318 317 318 318 320 321 322 324 324 322 322 320 320 320 319 319 319 319 319 319 319 320 321 323 323 322 322 322 322 323 323 323 323 323 323 323 323 324 322 323 322 323 323 323 324 322 320 320 320 319 319 318 317 317 317 316 317 316 315 315 315 315 314 316 317 316 316 316 317 316 316
325 324 323 322 320 321 320 321 322 321 321 321 320 319 319 320 318 318 319 320 321 321 323 323 322 322 321 321 322 321 319 319 319 318 319 321 322 322 322 322 320 319 320 320 322 323 323 323 323 324 325 324 322 323 323 322 322 322 323 322 323 324 323 322 320 319 318 318 317 317 317 316 317 316 315 315 314 315 315 316 316 315 318 316 316 316 316
322 321 320 320 319 320 322 323 321 320 320 320 318 318 319 319 318 318 319 319 321 321 323 322 322 322 323 323 322 321 320 320 320 320 319 320 322 322 323 323 323 320 323 323 323 323 323 322 322 322 325 326 325 325 323 322 323 322 322 321 322 323 322 325 322 319 318 318 317 317 317 316 315 315 316 315 314 314 316 317 316 315 314 314 316 317 318
321 320 320 321 320 319 320 321 320 319 320 319 320 320 320 319 320 320 321 322 320 322 322 323 323 323 323 323 322 321 320 320 320 319 318 320 320 322 323 323 323 323 323 323 324 324 323 322 321 322 324 324 325 324 323 322 322 322 322 321 321 321 321 322 321 320 321 320 319 317 317 316 316 316 315 315 315 316 315 316 317 317 318 316 315 318 317
321 320 321 322 321 319 319 319 321 320 320 320 320 320 321 321 321 322 323 324 322 321 323 323 323 324 323 322 321 320 320 318 317 318 319 320 321 322 323 322 323 323 324 325 324 323 322 322 322 323 323 323 323 323 324 324 324 322 322 322 321 322 321 319 319 319 318 317 318 319 319 318 317 316 315 316 315 315 315 317 317 318 316 316 316 317 313
324 323 323 322 323 322 322 321 321 320 320 319 319 322 324 323 323 323 324 323 324 324 326 325 324 322 322 320 320 319 319 319 320 320 320 321 322 323 323 323 324 324 324 324 325 324 324 323 323 323 324 322 322 323 322 322 321 321 322 322 323 324 321 319 319 319 318 318 318 317 317 316 315 316 315 315 315 315 317 318 317 317 317 315 316 318 321
325 324 324 325 325 323 323 323 321 321 321 321 321 321 323 324 323 324 323 324 324 325 326 325 323 320 320 321 320 318 319 320 321 321 321 321 322 323 323 323 322 321 321 321 322 323 324 324 322 326 325 323 322 323 322 321 321 322 323 322 325 324 320 319 319 319 320 318 317 317 316 317 317 316 316 316 316 319 320 319 318 317 317 315 316 317 318
327 327 327 327 327 325 325 326 324 323 322 323 323 324 325 325 324 325 325 325 324 326 326 324 322 320 319 320 320 320 321 322 321 321 321 322 322 323 322 322 322 321 321 318 321 322 323 323 324 327 326 323 323 322 323 326 325 322 323 324 324 321 319 318 317 317 317 319 317 317 317 318 317 316 316 316 318 318 318 318 317 317 316 317 315 315 317
329 327 328 328 328 327 328 328 327 328 328 329 329 327 327 326 326 325 325 324 324 325 326 324 323 323 323 323 322 321 322 322 322 323 323 323 324 322 322 321 320 321 318 319 323 322 323 324 325 327 324 323 322 322 321 326 328 326 323 324 324 322 319 318 317 318 317 318 317 318 317 316 315 315 315 315 316 316 316 316 316 316 316 316 316 315 317
330 330 329 329 329 329 329 328 327 328 327 329 328 329 329 327 327 325 325 324 325 327 326 325 324 324 324 323 322 322 322 322 323 323 323 323 323 322 321 322 323 323 323 324 323 322 324 325 327 324 322 322 322 320 322 323 331 326 324 326 326 322 318 317 317 317 318 319 317 316 315 314 314 314 314 314 314 316 315 316 315 316 316 316 315 318 317
326 326 326 324 325 327 328 328 329 330 331 329 328 329 330 328 326 325 325 325 327 330 326 326 325 323 323 323 322 322 323 323 323 323 323 323 323 323 322 323 324 325 326 324 325 323 324 327 327 323 322 322 321 321 323 324 329 325 326 325 322 319 318 318 318 317 317 317 316 314 314 315 315 315 314 313 314 314 314 314 314 314 314 316 317 316 316
326 326 325 326 325 325 325 326 328 330 331 331 330 331 330 328 327 326 324 325 327 329 329 327 325 323 323 323 323 322 323 323 323 323 325 324 323 322 319 318 324 323 324 325 326 327 330 329 324 322 323 322 322 324 324 325 326 327 327 324 320 319 317 317 316 316 317 315 315 313 314 314 314 314 314 313 313 314 314 313 313 313 313 313 314 314 314
324 325 325 324 325 325 325 326 325 326 328 330 329 328 327 328 327 326 327 326 328 328 329 328 326 326 325 325 324 324 323 324 326 325 325 324 322 321 318 320 324 325 328 327 329 328 326 323 324 323 323 324 324 329 331 331 329 323 321 318 318 317 317 317 316 315 316 316 315 315 315 315 313 313 313 314 313 314 313 313 313 313 314 313 313 313 313
323 323 323 324 325 325 324 325 325 325 326 327 328 328 329 329 328 328 326 329 327 328 328 329 329 327 327 326 325 325 324 325 324 324 325 325 327 326 323 324 326 327 325 327 327 325 323 325 323 324 329 329 331 334 335 327 322 320 318 317 318 317 317 317 318 317 316 316 314 314 314 314 314 314 313 313 313 313 313 313 313 312 312 313 313 312 313
322 322 323 324 324 326 327 327 327 327 326 326 329 329 330 329 329 328 327 327 327 328 327 327 327 328 328 327 325 324 324 323 324 324 322 322 323 326 328 325 325 326 325 325 324 322 323 323 324 329 331 332 333 333 325 320 318 318 317 318 317 318 317 317 317 316 315 316 315 315 315 315 314 314 314 313 313 313 313 313 314 313 313 313 313 312 312
323 324 324 324 327 327 327 327 327 326 328 329 329 329 329 329 329 329 328 328 328 328 328 329 328 327 328 326 325 325 325 325 325 323 321 319 318 320 326 326 325 323 325 326 326 323 322 323 326 331 332 332 331 327 321 319 317 317 317 319 319 318 317 316 316 317 316 317 317 316 316 316 316 315 315 315 316 314 314 313 313 314 313 313 313 313 313
323 326 326 326 326 327 328 328 330 330 330 328 328 328 329 329 329 329 329 329 329 329 328 329 329 328 328 327 327 328 328 328 325 325 325 323 321 323 326 324 324 324 326 328 326 323 323 330 327 330 330 330 326 321 319 319 318 318 319 318 318 317 316 317 317 317 317 317 317 316 315 315 316 315 316 315 315 316 317 315 314 315 316 316 315 315 314
327 328 329 328 328 329 331 332 331 329 328 327 326 325 327 330 330 329 330 331 331 330 330 330 330 330 331 330 328 326 323 324 326 325 326 325 326 324 324 326 327 326 327 326 324 323 322 323 328 328 331 326 323 320 319 319 319 319 318 320 318 318 318 317 318 317 317 317 316 315 317 317 316 316 316 317 316 316 316 315 317 316 317 317 315 315 314
327 327 327 329 330 331 331 331 328 327 327 325 326 326 328 329 330 331 331 331 331 331 330 331 331 331 332 332 332 330 327 324 319 321 323 323 324 324 324 323 322 324 328 329 331 332 330 327 327 330 332 329 322 320 320 319 318 320 318 319 318 319 318 319 317 318 317 316 317 317 316 315 316 316 316 316 315 315 316 315 315 317 316 317 316 316 316
328 328 329 330 331 331 330 328 327 326 326 328 328 327 329 330 331 331 331 331 331 330 329 329 330 331 332 332 331 327 329 329 328 321 322 324 324 322 323 324 328 331 331 324 322 322 331 331 329 329 326 325 319 319 318 317 320 319 318 318 319 319 318 318 318 318 318 318 317 316 317 316 316 317 316 315 315 316 315 316 316 316 317 316 315 315 316
329 330 330 329 328 328 328 327 325 325 327 328 327 328 331 330 327 327 328 329 329 327 326 326 327 329 330 328 329 328 331 331 331 330 329 328 327 328 325 325 325 328 330 326 324 322 333 330 331 329 323 321 320 319 320 320 319 319 320 318 318 319 318 317 319 318 318 317 317 317 317 317 317 316 315 315 314 314 315 315 317 317 319 317 316 316 316
331 329 328 328 329 330 331 329 327 328 328 328 329 329 330 328 327 326 327 327 326 326 324 324 325 325 325 325 325 327 328 331 330 330 328 326 329 327 329 326 326 328 330 329 325 321 321 322 322 321 320 319 318 319 321 320 319 318 320 319 319 319 318 318 318 318 318 318 318 318 318 317 317 317 315 315 314 315 315 315 316 317 317 317 317 318 317
333 331 332 331 329 329 330 330 332 332 332 330 329 329 328 328 327 326 326 327 326 324 324 323 322 324 324 324 324 323 323 325 324 324 326 326 324 323 323 330 326 324 329 329 323 324 322 321 321 321 321 318 319 319 325 325 319 319 319 319 322 319 318 319 319 319 319 319 318 318 317 317 316 315 315 315 314 314 315 316 316 316 316 317 317 317 317
Wind_Speed
2 1 2 1 1 1 4 6 8 7 5 7 5 6 4 4 3 4 4 4 6 6 7 8 7 7 6 7 7 7 7 7 7 8 9 8 10 10 9 11 10 7 5 5 7 7 7 6 6 6 4 4 3 3 4 4 5 5 4 4 5 5 5 6 7 7 7 7 7 7 7 8 8 9 8 8 8 8 8 8 7 8 8 9 9 9 9
2 2 2 4 4 6 7 6 5 5 4 5 7 8 6 6 7 7 8 10 10 7 8 8 9 6 7 8 7 8 8 8 8 9 9 9 9 9 10 10 9 7 7 8 8 7 7 6 6 5 4 3 3 4 4 4 4 5 4 5 4 5 6 6 6 6 6 7 7 7 7 8 8 8 8 8 8 8 8 8 8 8 9 9 9 8 8
4 3 5 5 6 9 9 7 6 6 7 8 8 8 7 7 8 7 7 9 8 6 7 9 8 6 7 8 8 7 8 8 8 8 9 10 9 9 9 9 6 7 9 8 8 7 7 7 6 5 4 4 3 3 4 4 5 5 4 4 5 6 5 5 5 5 5 7 7 7 7 7 8 8 8 7 8 8 8 8 8 8 8 9 8 8 8
4 3 6 7 8 8 9 8 6 4 4 5 4 4 4 2 4 4 4 4 5 6 8 8 7 7 7 8 8 8 7 8 8 8 9 10 9 9 9 7 7 7 8 7 7 7 7 6 5 3 3 2 3 4 4 4 4 4 4 4 5 5 5 4 4 4 4 5 6 7 7 7 8 8 8 7 8 8 8 8 8 8 8 8 8 8 8
3 5 5 9 10 7 8 6 5 5 7 6 7 6 4 6 2 3 2 5 6 10 9 9 8 7 7 7 7 6 7 7 7 7 9 9 9 10 8 7 7 8 8 7 7 7 6 5 3 3 2 2 4 4 4 3 4 3 4 4 4 4 4 4 4 3 3 5 6 6 7 7 7 7 8 8 7 8 8 8 7 7 8 8 8 7 7
5 7 5 7 7 8 2 4 3 4 5 3 3 6 7 8 6 6 6 7 9 10 9 8 8 8 6 6 4 3 5 6 6 7 8 8 9 8 6 7 8 8 7 6 6 6 5 4 4 2 4 4 4 3 3 3 3 3 4 4 4 4 4 4 4 2 3 4 5 6 6 6 7 7 8 8 8 7 7 7 7 7 8 8 8 8 7
6 6 6 6 9 1 3 2 3 2 3 4 7 8 7 6 6 7 8 8 9 8 7 7 6 7 7 6 5 4 4 4 5 8 8 9 8 8 8 10 10 9 8 8 7 6 4 4 4 3 4 4 2 3 3 3 4 4 4 4 4 4 4 5 5 4 3 3 4 5 5 5 6 6 6 7 7 7 6 6 6 7 7 7 7 7 7
5 6 6 8 2 4 4 4 4 4 3 4 7 7 5 5 5 4 7 8 9 7 8 8 7 8 8 6 4 3 5 5 5 6 7 5 7 9 10 11 9 9 8 7 6 5 5 5 4 3 4 2 3 3 3 3 4 4 4 5 4 4 5 5 5 5 4 2 4 4 4 4 5 5 6 6 7 6 7 6 6 6 6 6 7 7 7
5 5 6 2 6 6 6 7 5 2 2 4 3 0 5 5 2 3 7 9 9 8 8 8 8 8 7 6 5 4 5 6 5 8 12 12 12 11 10 10 9 8 7 6 6 6 5 5 5 4 3 2 3 3 3 3 3 4 4 5 5 5 5 5 5 5 4 2 3 3 4 4 4 5 5 5 5 6 7 7 6 6 5 6 5 6 7
4 5 6 4 6 6 5 5 5 1 3 3 2 1 5 2 3 4 7 8 8 8 8 7 8 8 6 5 5 5 6 9 13 15 15 15 12 11 12 10 9 8 7 7 6 6 6 6 5 4 3 3 3 3 3 3 4 4 4 5 5 5 5 5 5 5 4 1 3 3 3 4 4 4 4 4 5 5 5 5 6 6 5 6 5 6 7
4 5 5 5 5 5 3 5 3 3 1 2 1 5 4 3 3 6 6 7 7 7 7 8 7 6 4 4 7 6 8 12 12 12 12 13 13 12 11 10 9 9 7 7 7 6 6 6 5 4 3 2 3 4 4 3 4 5 5 6 5 5 5 5 5 5 5 3 3 3 3 3 3 4 4 4 4 4 4 5 6 6 6 6 6 6 6
5 5 6 3 4 4 4 4 3 2 2 2 2 7 2 1 5 6 6 7 7 6 7 7 5 2 3 6 6 8 10 11 10 12 14 14 13 12 11 10 9 8 8 8 7 7 7 6 5 3 2 3 4 4 4 4 5 5 6 6 5 4 5 5 5 5 4 4 4 4 3 3 3 4 4 4 4 4 4 4 5 5 6 6 6 6 6
3 4 4 2 5 5 4 3 2 2 1 3 6 4 5 5 7 5 5 6 6 6 7 4 3 6 6 8 10 10 11 13 14 12 12 12 12 12 11 10 9 7 6 5 6 7 7 5 4 2 2 2 4 4 4 4 5 5 5 5 4 4 4 5 5 6 5 5 5 5 4 3 3 3 3 3 4 4 4 4 4 4 6 6 6 7 6
4 4 7 1 6 4 3 2 0 2 5 5 2 4 2 6 6 6 5 7 7 6 5 5 7 8 9 11 10 11 13 13 13 13 12 12 11 11 10 9 6 6 7 7 8 8 7 5 4 1 2 3 4 5 4 5 5 4 4 4 4 4 4 5 4 4 5 5 4 4 4 4 4 5 4 4 4 4 5 4 5 5 5 5 5 6 6
1 3 3 3 3 5 3 3 3 1 5 4 4 6 6 6 7 7 7 6 7 6 8 10 10 9 8 9 11 12 12 11 12 12 13 12 12 11 10 8 7 7 7 7 7 6 5 4 2 2 3 4 5 5 6 5 4 4 4 4 3 3 3 3 3 4 4 6 5 4 5 5 4 4 4 5 4 4 4 5 5 5 5 5 6 7 6
3 4 4 1 5 3 4 5 1 6 7 5 5 6 7 7 6 7 6 6 6 7 9 9 8 8 9 10 11 10 10 11 12 12 11 11 10 9 9 8 7 8 8 7 6 5 5 3 3 3 3 4 4 6 6 4 3 3 3 3 2 4 3 2 3 4 4 4 4 5 5 4 3 4 4 5 4 5 5 5 5 5 5 6 6 7 7
4 5 5 4 3 4 5 6 8 8 7 5 4 6 8 7 7 6 6 7 7 8 10 11 11 9 7 8 8 9 10 10 11 11 11 10 9 9 8 8 7 7 7 7 5 5 4 4 3 3 3 4 5 6 5 4 3 4 4 3 3 4 4 3 3 3 4 4 4 4 4 4 4 4 4 5 5 5 4 5 5 4 4 6 6 7 7
11 11 9 6 6 7 8 7 7 8 8 7 6 9 9 8 7 6 7 8 9 9 10 9 7 7 9 9 10 10 9 10 11 10 10 9 8 9 9 8 7 7 7 6 5 5 4 3 2 2 3 3 5 5 4 3 3 4 4 4 4 3 3 2 2 3 4 3 3 4 3 3 3 3 4 4 5 5 5 4 4 3 5 6 7 7 7
4 4 5 9 9 8 9 9 9 9 9 9 9 11 10 9 9 10 9 9 9 9 8 9 11 11 9 9 9 9 8 10 10 10 9 8 8 8 8 8 6 5 5 5 4 2 3 2 2 2 3 3 4 3 3 4 4 4 4 3 3 2 2 2 1 1 3 4 4 3 4 2 2 3 3 2 4 5 5 5 4 5 6 6 6 6 7
3 9 7 8 9 7 7 8 9 11 12 13 12 11 11 11 10 10 10 9 10 9 10 11 11 11 9 10 9 9 9 9 9 9 9 8 8 8 8 7 5 5 3 3 4 3 3 3 2 3 3 3 3 4 4 4 5 4 3 4 4 3 3 1 2 3 2 2 3 3 3 3 3 3 3 4 4 4 5 5 5 4 4 5 5 6 5
11 12 10 10 12 12 10 11 11 10 11 13 13 12 12 12 11 10 9 8 9 10 11 10 10 10 9 9 7 8 8 8 8 8 8 7 7 7 7 6 4 4 2 3 3 2 2 2 2 3 3 3 3 3 3 3 3 3 3 3 2 1 2 4 3 1 3 3 3 4 3 3 2 2 3 4 4 3 3 3 3 4 4 4 5 5 6
9 8 11 13 8 9 9 11 12 12 12 13 12 11 11 11 11 10 11 11 11 11 10 9 8 9 8 8 7 8 8 7 8 8 7 7 7 7 6 5 5 4 2 1 2 2 1 2 2 3 3 2 2 2 1 2 2 3 3 2 1 2 4 2 4 5 3 3 4 4 4 3 3 1 4 3 1 3 2 5 2 2 4 4 4 4 3
7 12 14 1 8 13 10 12 11 11 10 11 11 10 10 10 10 10 11 11 10 9 7 6 8 7 7 8 7 8 7 7 7 7 6 6 6 5 5 4 5 3 3 2 0 1 1 2 2 2 2 2 2 1 1 1 2 2 2 2 3 2 2 5 5 5 6 5 4 3 3 4 3 4 0 6 5 5 4 4 5 6 6 9 8 8 6
14 14 8 9 11 12 13 12 10 9 9 10 11 11 10 10 10 10 10 9 9 8 7 5 7 7 7 7 7 7 7 7 6 5 6 5 4 4 4 4 4 3 2 1 1 2 2 2 2 2 2 2 1 0 1 0 2 2 2 3 3 2 4 4 3 4 4 4 4 4 3 2 4 3 4 3 2 7 8 7 9 9 10 10 11 10 10
12 10 9 12 14 14 12 12 10 9 8 9 10 10 9 9 9 9 9 8 7 7 6 7 7 7 7 7 7 6 5 4 4 4 5 3 3 3 4 4 4 3 2 2 1 1 2 2 1 2 2 2 1 1 1 1 1 2 3 4 4 4 4 3 4 4 5 4 4 5 5 5 4 4 5 5 5 3 5 10 11 10 10 11 12 12 12
13 12 14 15 14 13 11 11 11 10 10 10 10 9 9 9 9 9 8 6 6 5 6 6 7 7 6 5 4 5 3 4 6 4 5 6 6 4 3 4 4 3 2 1 1 2 2 2 1 2 2 2 2 2 2 1 2 3 3 4 5 5 5 5 5 5 5 4 4 4 4 4 5 6 5 5 5 6 6 4 4 8 11 13 13 12 12
13 15 17 15 13 11 9 8 9 10 10 10 11 11 11 11 9 8 7 6 6 6 6 6 7 6 5 5 5 3 3 7 6 4 4 4 5 5 3 4 3 2 3 1 0 1 2 2 1 1 2 3 3 1 3 1 2 3 3 4 4 4 7 7 6 6 5 5 5 5 5 5 5 6 6 5 6 6 6 6 7 7 6 6 11 14 12
12 11 9 12 12 10 10 11 11 10 10 10 11 11 11 9 8 8 8 8 7 6 6 6 7 6 6 5 5 6 6 6 4 5 5 5 5 5 3 2 2 2 0 1 1 1 2 2 2 3 2 2 1 2 3 3 3 4 3 3 3 4 5 4 5 5 6 5 5 6 6 6 6 7 6 6 6 6 6 7 7 8 8 8 5 10 18
8 6 7 10 11 11 11 11 10 10 10 9 9 9 9 9 9 8 8 8 8 8 7 7 5 5 5 5 4 5 5 6 6 6 5 4 4 5 4 3 1 2 1 1 2 1 2 2 3 4 4 2 3 2 3 2 4 4 4 3 4 4 4 4 5 5 6 7 7 7 6 7 7 6 6 7 7 7 7 7 7 8 9 8 6 2 6
8 10 11 11 12 13 13 11 11 11 10 9 9 9 8 7 7 7 8 8 8 8 7 6 5 5 5 6 5 5 6 6 6 5 6 6 4 3 3 2 1 1 1 2 1 1 1 2 3 4 3 3 3 2 3 3 3 4 5 5 5 6 6 6 7 7 6 7 7 7 7 6 6 6 7 7 7 7 8 8 8 8 8 9 8 9 6
10 12 12 12 13 12 11 11 9 10 10 9 8 8 7 6 7 6 7 7 6 7 6 6 5 6 5 5 5 4 6 7 6 5 5 5 4 3 2 2 2 1 0 1 1 1 2 2 3 3 3 4 4 3 3 4 4 4 4 5 5 6 9 12 10 8 8 8 8 7 7 8 7 6 7 7 7 7 7 7 8 8 7 8 9 8 5
14 14 13 11 10 11 10 9 9 9 9 8 8 8 7 7 7 7 7 6 6 7 6 6 6 6 6 6 5 4 5 5 4 4 5 4 3 3 2 2 2 2 2 2 2 2 2 2 3 3 3 2 3 3 3 4 4 5 6 5 5 6 6 7 6 7 7 7 7 7 7 7 7 7 7 7 7 8 7 7 9 8 8 9 9 7 5
13 12 10 9 9 10 10 9 9 10 9 9 7 7 6 6 7 6 6 6 6 6 6 6 5 6 6 6 6 6 6 5 4 4 4 4 4 3 3 2 2 2 2 3 3 3 3 3 4 3 2 3 3 4 5 5 5 5 5 6 6 6 8 7 6 7 7 6 6 7 6 6 7 7 7 7 8 8 8 9 9 7 5 8 6 6 2
11 9 10 10 9 9 10 9 8 9 8 8 8 7 6 6 6 6 6 6 6 6 6 6 6 7 7 7 6 6 6 5 5 4 4 4 3 2 2 2 2 3 3 3 4 4 3 4 4 3 3 3 4 5 5 5 5 5 6 6 7 7 7 8 7 6 5 6 6 6 6 6 6 6 6 7 8 9 9 8 10 12 11 8 6 7 3
8 9 10 9 8 8 9 9 9 9 8 8 8 8 6 6 6 6 6 5 6 6 6 6 6 7 7 7 7 6 6 4 3 3 3 3 2 2 2 2 3 3 4 4 3 4 4 5 4 4 4 5 5 5 5 5 5 5 6 6 7 6 7 6 6 6 6 5 5 5 4 5 5 6 7 8 9 9 5 1 5 6 9 10 9 8 2
8 8 7 5 4 5 7 7 8 9 8 7 7 8 8 7 7 7 8 6 6 6 6 7 7 7 7 6 6 6 5 4 3 3 3 3 2 2 2 3 2 3 3 2 2 2 2 3 2 3 5 5 5 6 5 6 6 5 6 7 7 6 7 6 4 4 4 5 5 6 6 7 8 8 9 10 9 8 8 8 6 6 7 8 8 7 5
7 8 7 5 4 3 5 4 4 6 7 6 7 7 8 8 7 6 7 6 6 7 7 7 7 7 7 7 6 5 4 3 3 2 2 2 2 3 3 2 2 2 3 3 2 4 3 3 1 3 5 5 5 6 4 2 5 7 6 6 6 6 7 6 5 5 5 5 5 6 7 7 7 8 8 8 8 9 9 8 8 9 8 7 7 8 3
7 8 7 5 4 5 5 4 4 5 6 7 6 6 8 8 6 6 6 6 7 7 7 7 7 6 6 6 5 4 5 4 4 3 3 3 3 3 3 2 2 3 3 2 2 3 2 2 2 4 4 5 5 5 3 3 2 6 7 7 6 6 6 5 5 6 6 6 7 7 7 7 7 8 8 7 7 7 8 8 9 8 8 7 6 6 7
8 7 7 6 5 5 6 5 4 4 6 7 7 6 6 7 7 7 6 5 5 6 7 6 5 5 5 5 6 5 5 4 4 3 3 3 3 4 3 2 2 3 2 2 3 2 2 3 4 4 4 4 5 6 4 2 3 6 7 6 5 6 5 5 6 6 6 6 6 7 7 7 8 8 8 8 8 8 8 8 8 8 7 7 6 5 5
8 7 7 6 6 6 6 5 5 5 5 6 7 7 7 7 7 6 5 5 5 6 5 5 6 5 5 6 5 5 4 4 4 4 4 3 3 3 3 4 3 2 1 2 4 3 3 5 5 4 3 4 5 5 5 4 5 6 6 5 5 5 5 5 5 6 5 5 6 6 6 7 7 8 9 9 9 9 8 7 7 7 8 7 7 7 7
8 8 7 7 7 6 6 6 6 6 6 6 6 7 7 6 5 4 5 5 5 5 5 6 6 5 5 5 5 4 3 4 4 3 3 3 3 3 4 2 1 1 1 2 4 4 4 5 5 5 5 5 6 6 7 6 6 5 5 5 5 5 5 5 6 5 5 6 6 6 7 7 8 8 8 9 9 9 8 9 9 8 7 7 7 6 6
9 9 8 7 6 6 6 6 6 6 6 6 6 5 5 5 5 4 4 3 4 5 4 5 4 4 5 5 4 3 4 4 4 4 4 4 4 3 4 0 2 1 3 3 4 5 4 5 4 5 6 6 7 2 3 5 4 4 4 3 4 5 5 5 5 5 5 6 6 8 8 8 8 8 8 7 8 9 9 10 9 8 8 8 8 8 8
10 9 8 7 6 6 6 6 5 6 5 5 4 4 4 4 3 3 4 4 4 4 3 3 4 4 4 5 5 5 5 5 5 4 4 4 4 4 4 3 2 1 1 3 4 4 5 5 6 5 5 4 5 6 8 5 4 3 3 3 3 4 4 4 5 5 6 7 7 7 8 8 9 9 9 9 8 8 9 9 8 9 9 8 8 8 8
9 8 7 7 6 6 6 5 5 5 5 5 4 4 4 4 4 4 4 4 3 3 3 4 4 5 5 5 5 5 4 4 4 4 4 4 5 5 6 4 3 2 3 4 4 5 6 5 4 5 3 4 4 7 6 3 3 2 2 3 4 4 5 6 6 7 8 8 9 9 8 8 8 8 9 9 10 8 8 8 9 9 9 8 8 8 8
9 7 8 7 7 6 5 5 5 5 5 5 5 4 5 5 5 4 4 4 4 4 4 4 4 4 4 5 5 4 3 3 3 3 4 4 4 3 4 4 3 4 2 2 5 6 5 4 4 4 3 2 3 7 4 2 2 2 3 4 4 5 5 7 7 8 8 8 8 8 8 9 9 8 8 8 8 9 10 10 9 8 8 9 8 7 8
9 8 8 7 7 6 5 5 4 4 5 5 5 5 5 4 4 4 4 5 5 5 5 5 5 4 4 4 4 4 4 4 4 4 4 3 3 2 2 1 1 1 3 5 5 6 1 8 2 1 1 2 5 6 1 1 2 2 3 4 5 6 7 7 8 9 9 9 9 9 9 9 10 9 9 9 9 8 8 8 8 8 7 7 6 6 7
8 7 7 7 6 6 6 5 5 5 5 5 5 5 5 5 4 4 4 4 4 4 4 5 5 5 4 5 5 4 5 5 5 4 4 4 3 4 3 2 5 5 6 5 5 5 4 1 3 4 3 2 7 4 2 2 2 3 4 4 6 6 7 7 8 8 9 9 9 9 9 8 8 8 8 8 9 8 8 9 8 8 8 7 7 6 6
8 8 7 7 6 6 6 6 6 5 5 5 4 3 4 4 4 4 3 4 4 5 5 4 4 4 4 5 6 5 4 3 3 5 4 3 3 3 3 4 2 1 4 7 8 6 5 4 3 4 5 5 6 3 2 3 3 4 5 5 6 7 7 7 8 8 9 9 9 8 8 8 8 8 8 9 9 9 9 9 9 9 8 7 7 7 6
7 7 7 6 6 7 6 5 5 4 4 4 4 3 3 4 4 4 4 4 5 5 4 4 4 4 5 5 5 5 5 3 4 1 3 2 2 3 3 3 4 6 6 5 6 4 8 9 7 7 6 7 5 3 3 3 4 5 6 6 7 7 7 7 8 8 8 9 8 8 8 8 8 8 9 9 9 9 9 9 9 9 9 8 7 7 6
7 6 6 6 6 6 6 5 5 4 3 4 4 3 4 4 5 5 5 5 4 4 4 4 4 4 5 5 6 5 4 4 5 4 4 4 4 5 5 6 6 5 6 6 5 5 7 12 8 8 6 5 4 4 4 4 5 5 6 7 7 7 7 7 6 7 7 8 8 8 7 8 8 8 9 9 9 9 9 9 9 9 6 6 7 7 6
6 7 6 6 6 5 6 4 1 1 3 3 3 3 4 5 4 4 4 4 4 4 4 4 4 4 5 5 5 5 5 5 5 5 5 5 5 6 6 7 6 6 5 5 5 6 6 4 5 6 7 6 5 5 5 5 6 6 7 7 7 7 7 7 8 9 8 7 7 7 7 8 8 9 8 8 8 8 8 9 8 8 8 7 6 6 6
5 5 5 5 5 4 4 4 3 3 3 4 4 4 5 5 4 4 4 5 4 4 4 4 5 5 5 5 5 5 5 5 5 5 6 6 5 6 6 7 5 5 6 5 6 6 6 5 4 5 5 5 5 5 4 5 6 6 6 6 6 6 6 6 7 8 8 7 7 7 7 7 8 8 8 8 8 8 8 8 8 8 8 7 7 6 6
Wind_Direction
310 2 360 357 224 79 135 145 151 154 170 197 217 84 63 324 329 17 64 68 89 87 103 124 125 129 134 136 136 141 142 146 145 154 159 153 145 138 143 123 116 107 130 152 141 143 138 133 128 119 109 99 91 78 56 39 32 28 19 25 23 28 23 21 19 24 20 17 18 20 19 18 17 14 15 15 19 22 25 25 26 26 19 13 13 8 20
118 126 167 176 165 133 126 116 124 135 141 102 98 96 63 67 74 97 97 89 79 73 107 111 118 122 114 119 123 132 149 150 159 162 158 156 145 140 131 126 134 147 143 141 143 135 132 135 129 121 112 96 67 47 46 36 32 23 10 29 17 17 17 17 26 24 26 27 26 21 20 18 18 16 13 16 18 18 22 19 22 20 19 22 10 22 19
93 109 158 167 162 150 121 107 107 108 101 95 92 93 95 102 93 110 123 108 99 77 91 100 102 115 118 128 138 141 141 153 163 164 161 148 145 135 139 135 144 144 147 142 139 135 129 124 117 101 91 77 55 38 32 36 27 18 11 18 6 14 12 20 19 19 21 29 29 26 23 20 22 18 18 20 21 22 21 23 23 23 28 24 20 23 21
123 137 163 158 156 152 119 104 94 104 135 123 104 91 45 304 123 121 154 180 127 128 116 122 129 128 134 136 139 142 154 166 167 168 152 141 147 141 134 130 138 141 136 137 130 124 117 114 113 106 87 62 40 50 39 37 18 8 10 3 15 10 7 8 8 28 33 38 30 28 26 29 25 26 28 25 29 27 25 29 28 32 31 29 29 27 26
139 137 186 161 168 161 183 134 71 62 82 84 94 86 68 46 9 210 261 56 90 132 140 138 141 139 137 138 147 156 155 166 169 161 143 145 139 134 142 142 148 143 132 127 125 116 119 118 105 89 80 60 66 53 51 25 350 12 1 9 5 360 2 354 360 26 25 36 37 33 32 31 28 31 32 32 32 36 36 33 34 36 37 37 34 33 33
148 166 175 189 201 219 94 56 41 4 65 76 120 102 90 62 28 65 55 91 117 136 148 145 143 145 143 136 122 125 152 163 165 134 132 133 131 137 142 144 133 109 117 125 122 121 121 107 92 84 58 68 68 62 33 31 12 13 358 10 360 7 1 358 2 18 360 42 36 37 34 33 33 33 32 34 30 36 42 42 38 37 41 40 38 34 31
162 155 180 199 229 157 91 99 78 96 60 65 84 94 85 83 84 96 102 116 133 136 138 129 125 117 123 117 134 139 141 139 128 132 134 139 143 134 140 124 118 132 134 132 125 125 115 109 115 104 90 86 84 68 40 43 33 21 20 22 14 14 16 6 3 4 7 42 45 40 35 36 36 35 32 33 32 30 31 40 42 37 32 36 36 34 30
118 190 183 236 70 97 134 102 90 94 112 92 129 106 94 76 73 92 111 123 129 130 125 125 124 129 119 111 111 105 113 119 138 140 133 153 141 129 116 118 133 140 137 128 125 108 105 123 99 90 92 82 64 74 54 39 33 28 20 25 21 8 6 2 3 354 14 6 59 38 31 35 29 33 34 30 28 25 32 31 35 37 31 27 31 31 27
196 197 213 68 136 150 146 151 139 166 145 163 252 266 99 79 102 117 123 131 132 130 125 128 133 136 136 138 120 124 121 119 92 69 79 85 90 98 123 132 133 128 124 123 113 121 118 102 102 102 96 79 55 47 46 37 31 36 32 30 18 1 15 359 7 350 15 332 44 38 42 31 33 28 22 31 30 20 23 29 27 25 35 26 22 24 20
273 222 205 180 212 230 119 55 97 53 41 9 9 105 125 97 94 117 136 133 131 134 134 138 140 157 174 154 119 118 117 103 93 100 103 106 119 143 132 129 129 128 124 125 126 121 120 112 104 101 95 63 57 42 39 34 18 30 16 18 14 12 7 7 1 351 28 354 11 29 28 28 23 22 18 19 26 19 18 21 24 14 17 25 21 24 19
207 220 250 230 255 62 49 105 96 82 22 331 76 262 178 77 98 119 120 132 137 143 147 146 164 193 217 125 109 118 111 110 115 116 119 126 128 124 127 133 136 130 127 116 121 123 118 116 110 108 84 63 40 27 35 6 13 13 9 9 8 0 359 7 360 3 31 23 18 30 12 31 0 7 14 18 22 11 358 7 21 21 5 25 15 25 28
216 234 243 298 26 92 115 101 94 84 59 244 264 258 122 193 137 121 132 139 148 144 147 160 185 277 309 101 117 115 112 110 116 124 125 125 130 135 138 133 120 112 118 138 139 130 120 113 119 105 64 36 33 15 20 354 1 7 9 3 4 354 5 11 13 18 22 18 18 14 23 22 0 6 351 3 11 14 4 9 15 17 4 21 22 21 22
140 255 259 145 124 96 73 56 84 113 202 279 240 283 97 149 122 123 122 131 129 139 150 187 115 64 69 95 112 112 118 117 117 116 122 130 135 134 125 115 123 130 132 112 101 101 106 116 112 106 14 30 13 16 1 357 13 13 5 2 7 0 15 23 27 24 24 29 26 46 46 20 23 11 21 8 12 1 12 12 10 11 11 12 18 17 22
234 215 254 23 75 62 1 94 73 130 216 214 325 77 120 120 116 110 113 120 128 141 106 79 93 102 101 104 106 120 124 124 124 128 132 129 120 110 107 122 123 106 104 110 112 113 123 131 115 83 27 28 20 15 9 17 17 19 359 9 7 9 26 29 32 36 39 35 34 28 20 7 5 22 17 13 13 7 1 8 12 8 19 17 11 18 16
235 221 258 214 220 106 322 30 161 48 281 62 103 125 110 103 106 114 116 120 118 112 106 101 109 118 119 114 120 125 127 127 130 131 130 125 123 122 126 124 118 123 119 112 99 103 100 92 97 82 9 31 23 13 27 20 16 13 4 13 7 13 24 28 14 27 25 19 4 14 16 9 19 23 15 15 17 7 5 6 15 15 24 19 14 20 15
271 204 220 12 48 66 39 334 53 66 53 73 111 121 101 102 111 116 114 100 97 107 109 113 114 114 121 121 129 131 132 130 128 124 121 120 120 130 122 117 116 103 103 106 109 95 89 84 65 32 5 22 23 20 27 18 13 4 10 16 360 3 19 21 351 19 12 16 7 13 21 11 32 18 21 13 10 17 12 16 16 22 16 27 22 27 18
1 35 59 81 70 60 54 61 83 80 87 82 81 101 104 103 89 88 102 107 109 104 111 116 124 129 123 119 129 127 126 126 125 125 124 125 127 122 120 108 111 112 108 113 113 111 102 83 56 27 25 359 15 27 25 18 7 6 1 16 351 9 7 17 358 12 1 25 15 15 23 17 27 22 26 20 22 26 20 23 29 27 9 33 29 30 21
101 70 64 98 87 82 90 80 79 96 92 74 82 93 90 74 77 86 101 106 107 118 125 128 129 124 133 131 128 131 129 125 121 121 124 126 125 118 113 114 108 107 115 115 114 105 94 68 59 48 22 9 14 19 18 1 19 8 6 359 6 9 2 18 14 5 354 21 25 24 11 17 31 22 31 22 26 28 30 34 39 15 17 23 29 28 33
180 82 70 84 90 96 86 85 83 84 85 83 83 85 86 91 91 95 96 102 111 116 127 121 121 125 132 128 127 123 125 124 128 132 131 132 130 120 110 104 113 101 99 110 107 98 84 64 28 24 22 12 16 358 0 338 35 24 353 343 354 23 24 360 59 347 42 8 348 25 12 4 31 18 27 54 47 29 32 48 28 21 21 22 16 19 29
83 116 108 91 88 81 91 103 101 93 90 88 86 89 90 92 94 96 103 111 112 121 116 120 123 120 119 120 124 128 127 129 132 134 135 135 127 118 115 118 106 103 99 94 95 64 64 38 11 356 1 10 358 353 354 358 14 357 1 10 357 37 17 40 39 357 27 144 312 357 22 343 4 27 15 357 32 39 36 24 19 30 19 19 12 11 12
99 106 114 117 103 92 89 89 88 95 99 100 98 98 103 104 101 101 101 103 110 109 110 116 120 121 117 121 129 123 127 135 140 136 136 134 127 128 131 122 121 108 120 81 72 70 59 31 354 352 347 350 344 337 347 8 354 350 4 16 25 48 19 8 23 42 350 356 32 339 2 319 43 8 347 355 355 20 71 24 353 342 355 359 13 8 1
152 150 149 149 136 125 112 109 107 106 104 104 107 107 103 105 108 110 112 111 111 115 120 124 125 119 120 120 125 125 129 134 132 134 137 147 142 146 138 149 136 121 107 101 89 74 59 351 328 321 343 349 335 318 348 4 349 336 352 325 78 350 349 344 11 347 20 355 26 344 340 343 322 294 144 297 11 315 11 115 121 308 281 309 339 331 307
141 139 149 140 102 117 113 113 113 113 111 109 105 105 107 110 112 114 115 117 117 117 115 117 115 116 125 126 128 132 132 126 137 141 150 149 153 149 150 141 135 142 117 107 144 82 350 331 323 324 349 350 342 330 15 359 314 331 306 315 296 331 326 345 35 335 330 355 349 345 319 319 338 322 27 208 221 228 255 188 192 218 241 252 274 275 286
105 125 124 133 127 124 127 119 115 111 105 105 106 106 109 113 117 120 119 116 118 117 122 114 112 126 128 132 129 115 122 139 134 154 160 162 154 157 159 152 147 158 153 181 5 23 360 325 340 339 350 343 63 132 169 305 304 304 296 293 297 309 314 333 335 306 320 330 324 328 327 331 299 312 305 321 198 218 231 227 212 211 219 225 230 231 240
112 107 114 116 116 119 120 120 112 106 113 113 111 112 114 119 115 113 114 118 121 122 119 114 114 118 121 123 125 127 129 116 137 140 147 174 146 176 187 139 145 177 184 120 66 8 341 353 16 359 359 337 21 44 159 267 287 307 313 290 292 296 301 309 303 306 305 316 320 321 326 315 309 303 311 314 318 315 223 225 228 220 221 224 220 221 223
106 109 107 110 113 116 120 120 115 113 111 113 112 109 104 100 107 113 109 110 106 103 107 117 121 119 126 121 102 107 126 111 109 150 167 170 169 173 202 145 165 176 163 163 78 350 6 8 7 354 334 315 148 207 229 171 312 327 309 314 308 306 316 315 303 305 303 309 305 305 311 308 303 299 301 310 313 308 311 315 233 228 226 224 225 217 226
113 120 121 118 120 127 138 129 123 124 119 120 119 122 121 119 119 112 105 92 90 100 107 109 108 117 119 119 115 114 94 106 138 157 129 154 156 179 158 128 155 164 199 167 78 6 352 317 301 305 329 12 343 313 286 302 301 302 310 308 305 287 263 268 292 300 308 306 312 315 309 298 295 292 298 301 298 300 312 311 317 309 316 252 213 207 212
126 132 135 133 137 132 121 120 124 126 127 125 131 131 129 133 128 126 116 111 106 102 101 108 120 130 130 133 139 130 135 151 132 126 155 161 139 108 86 66 117 207 215 109 224 256 289 318 297 304 329 348 342 304 289 276 279 288 297 309 302 311 327 294 294 307 308 308 308 306 298 295 289 291 295 293 296 305 306 313 309 315 305 307 322 193 215
115 119 123 118 119 120 118 119 129 129 129 131 130 134 146 144 131 125 119 117 119 121 119 113 111 120 128 137 136 137 136 126 134 135 116 75 95 117 136 142 165 111 272 226 250 253 269 284 297 311 313 319 286 299 288 297 290 296 307 309 316 322 314 319 309 305 300 305 303 302 301 295 294 290 291 294 298 301 304 304 306 310 311 314 334 302 183
113 112 112 117 127 132 134 137 137 141 138 139 143 149 146 139 132 120 123 130 131 121 117 115 119 124 135 135 136 140 134 126 120 125 136 152 134 115 98 105 121 144 210 227 244 258 276 301 306 302 316 321 293 276 270 283 284 293 289 298 299 300 310 306 304 298 288 289 293 294 290 282 273 276 283 290 295 302 308 307 304 297 317 325 322 318 317
121 122 124 133 137 139 135 135 144 144 144 148 149 144 140 134 116 119 109 111 119 122 123 122 121 132 137 129 128 140 131 127 138 133 128 123 142 151 169 195 250 240 271 292 280 273 286 302 305 310 334 325 334 316 299 292 296 293 294 296 292 263 254 264 267 279 297 302 301 298 304 304 296 286 286 291 294 294 298 300 304 305 314 312 322 323 331
131 134 135 138 140 136 132 143 148 149 155 156 151 151 147 138 137 136 136 138 129 132 133 131 139 139 133 132 138 131 121 131 143 138 144 148 153 163 195 219 257 286 280 277 272 277 289 296 301 324 326 319 312 303 289 281 287 295 308 301 300 317 311 249 265 278 280 290 295 296 292 292 297 298 294 288 292 298 296 297 301 312 332 316 315 320 325
132 134 136 141 143 144 146 154 154 154 166 163 159 145 156 141 142 142 137 140 136 142 140 133 136 137 140 145 148 150 145 149 156 174 163 162 172 178 198 232 243 264 277 276 275 278 284 286 293 308 309 297 308 307 309 315 308 301 308 314 324 332 324 322 302 299 304 296 300 302 304 298 302 301 296 294 294 298 298 298 294 294 288 298 322 313 33
148 147 150 156 155 156 161 160 161 159 165 162 152 158 158 142 138 132 143 154 152 152 144 143 141 144 150 158 158 160 159 164 163 173 164 166 181 183 210 229 254 262 266 267 265 267 274 273 273 270 284 290 288 304 312 307 308 303 300 311 323 332 340 342 333 324 328 321 319 318 305 296 291 295 299 300 300 297 306 330 327 316 311 309 295 281 155
141 138 150 158 158 162 160 164 167 167 168 163 165 165 155 144 151 146 149 166 150 157 147 146 149 159 164 166 165 165 168 174 171 170 172 190 202 211 232 253 253 250 254 249 262 270 270 281 283 285 269 283 315 307 303 302 308 305 317 319 319 325 341 325 329 336 338 337 325 318 313 311 322 318 311 306 306 304 317 271 280 290 303 307 310 320 350
134 135 136 126 135 145 155 164 172 174 171 170 168 169 164 167 161 150 162 169 157 158 160 158 165 174 166 171 183 177 178 195 176 207 219 231 229 221 244 255 260 253 259 273 261 259 272 278 265 288 294 301 298 300 326 333 326 323 325 318 309 334 328 312 317 322 320 336 333 333 329 333 318 307 310 308 305 301 299 292 284 281 285 302 318 321 342
144 138 134 127 136 146 134 137 169 176 174 165 163 163 164 165 168 157 157 171 162 165 169 174 173 179 181 181 200 183 195 209 211 223 222 200 207 235 250 256 246 280 284 287 325 318 313 308 39 254 265 291 300 315 335 266 304 320 314 312 315 330 319 317 337 330 331 328 327 328 321 310 311 314 311 308 312 310 305 301 304 310 314 311 322 319 336
134 144 134 125 126 125 120 129 145 162 155 150 153 163 169 167 163 165 179 168 167 170 178 183 181 186 190 187 202 181 200 207 212 196 208 208 221 240 240 266 285 268 276 353 333 314 325 332 260 267 292 290 297 296 330 86 279 301 309 315 326 335 313 319 324 331 329 339 335 324 319 320 324 324 328 327 327 325 324 324 323 320 317 318 316 327 312
115 115 117 117 117 117 114 118 136 147 157 154 150 151 162 167 167 173 175 174 157 160 183 190 178 188 193 196 210 208 214 221 219 207 199 209 228 243 258 277 285 296 313 307 310 314 318 297 303 301 293 300 303 302 347 29 236 301 312 311 323 319 311 328 337 331 328 328 321 333 330 344 346 344 341 344 337 334 331 335 327 321 320 319 320 301 288
128 130 134 137 130 124 122 117 118 122 132 144 151 152 155 164 178 179 170 164 160 181 188 182 192 198 196 205 214 218 204 225 216 213 220 221 228 245 260 247 243 244 226 266 274 299 321 278 276 292 301 312 300 313 321 325 288 301 307 328 331 318 333 331 323 325 331 319 337 328 344 347 350 342 350 348 351 347 346 341 336 335 333 334 338 336 334
137 137 135 127 128 133 127 123 118 118 120 129 141 149 158 163 158 170 188 176 167 183 192 200 210 216 215 215 214 227 213 224 213 209 225 234 234 240 262 272 92 275 200 303 324 322 311 299 300 309 313 306 313 331 316 307 292 320 339 327 314 339 334 339 334 324 337 342 337 334 349 340 344 341 349 345 353 350 348 348 346 340 339 337 334 330 327
141 138 134 132 131 130 126 123 125 121 117 117 129 143 149 150 171 181 182 172 173 186 193 205 220 238 228 224 225 227 228 215 212 228 223 240 244 260 267 342 87 22 69 294 261 258 266 278 287 294 308 314 309 5 305 290 307 320 303 327 352 339 339 342 341 344 338 331 335 334 338 333 334 333 337 338 336 342 348 348 346 348 348 346 338 340 336
145 143 141 138 139 139 140 140 143 137 134 135 143 150 154 163 165 179 174 174 190 179 188 192 172 190 208 212 215 224 221 217 220 221 223 226 233 243 271 316 300 143 127 279 293 302 304 313 307 324 14 344 322 336 287 277 308 317 354 351 352 335 344 348 340 334 333 330 327 328 326 333 329 331 330 330 329 342 338 335 337 340 343 343 336 337 333
150 142 143 146 148 148 149 148 148 148 160 155 154 157 161 173 179 185 181 184 181 195 203 205 197 198 209 218 219 223 218 214 213 209 217 208 210 210 229 246 265 130 173 287 304 309 312 326 7 25 2 328 316 285 288 322 325 340 2 342 342 335 347 330 338 335 335 331 326 325 319 317 316 316 314 319 323 328 314 320 331 332 329 325 325 333 331
146 146 150 152 151 155 161 160 166 174 162 148 157 174 179 188 194 202 204 206 209 207 209 218 218 216 212 215 218 218 217 209 216 204 218 218 228 168 154 202 215 248 186 281 304 309 323 7 31 1 353 341 291 278 289 353 329 5 356 327 345 341 335 331 344 335 332 320 316 310 311 308 305 302 304 304 305 312 317 321 320 320 313 312 329 336 331
150 155 152 154 158 162 158 155 150 153 155 172 176 174 189 196 202 209 215 222 219 221 221 220 224 226 233 228 207 206 206 209 213 211 236 272 310 18 100 245 296 310 321 291 299 304 351 99 71 353 315 257 272 263 272 302 304 324 336 336 336 327 335 350 343 332 329 323 324 324 322 321 316 313 313 309 306 300 297 290 291 294 289 295 302 313 318
154 157 160 164 162 156 148 141 148 163 174 187 198 191 185 196 209 214 208 214 224 225 223 222 226 232 229 228 219 201 205 196 201 213 227 225 221 230 225 236 256 261 262 283 318 317 343 105 151 150 215 236 275 285 304 287 316 317 329 327 325 335 334 336 338 335 331 330 332 321 311 305 307 306 304 298 296 297 299 294 295 294 294 291 294 289 292
165 170 168 169 164 158 156 157 167 183 189 206 211 199 191 194 207 216 209 213 215 221 220 217 223 224 220 219 212 217 238 253 222 175 197 205 193 202 215 231 225 183 249 262 257 242 205 221 194 191 206 236 252 259 263 289 304 320 316 321 331 338 337 341 335 335 336 340 333 330 330 328 322 318 318 315 313 309 310 306 299 294 290 291 294 292 290
170 175 169 171 166 170 176 181 184 199 205 204 209 214 193 201 204 205 208 206 210 217 219 211 206 202 203 201 214 208 196 215 271 8 117 213 203 231 222 230 229 232 246 285 295 299 170 187 198 204 203 240 262 277 289 295 309 312 315 330 330 330 329 332 339 337 334 333 332 332 330 326 326 329 328 322 315 314 311 307 305 300 298 298 296 293 286
177 173 176 176 177 183 189 193 206 207 188 200 213 204 212 216 220 203 201 204 208 210 218 204 200 191 198 193 195 206 202 219 228 245 249 249 253 257 264 273 280 272 260 285 300 296 162 178 198 202 219 235 254 263 284 297 302 317 325 316 318 325 336 331 306 299 318 329 331 327 327 324 329 330 321 313 320 319 316 314 312 307 291 269 275 282 280
180 190 188 182 186 187 198 226 286 168 224 216 218 208 216 225 229 210 201 201 204 206 209 192 196 186 189 199 198 195 198 209 224 232 246 245 247 257 263 272 271 263 257 255 276 289 294 248 230 202 209 233 257 264 277 299 312 304 305 318 327 324 325 327 337 338 339 334 323 323 325 326 331 331 324 325 325 323 322 318 313 312 306 305 301 296 296
182 187 183 180 184 187 198 196 189 201 206 219 224 218 221 228 226 213 193 191 213 204 198 190 186 186 201 190 199 204 195 209 221 212 222 241 258 267 258 230 255 256 236 249 276 268 265 272 252 231 253 259 263 272 270 255 267 292 305 306 306 309 317 323 325 331 336 330 321 321 324 331 335 326 325 327 327 327 324 324 322 317 312 311 308 306 298